User: anonymous   Login
Location: Caltech
(34.1382°N, 118.1253°W)
Time: 13:54:33
(UTC-07:00)
Language:

Cosmos 2360 Rocket - Orbit

View from above orbital plane
View from above orbital plane
View from above satellite
View from above satellite

Ground track
Ground track

The orbit data is extracted from the following two-line orbital elements,

1 25407U 98045B   16267.99482710 -.00000216  00000-0 -85532-4 0  9994
2 25407  71.0099 240.8190 0010128 256.8418 103.1576 14.15751895938500
Epoch (UTC): 23 September 2016 23:52:33
Eccentricity: 0.0010128
inclination: 71.0099°
perigee height: 832 km
apogee height: 847 km
right ascension of ascending node: 240.8190°
argument of perigee: 256.8418°
revolutions per day: 14.15751895
mean anomaly at epoch: 103.1576°
orbit number at epoch: 93850

The dashed part of the orbit path shows where the satellite is in the earth's shadow,  

DLR